Weather History for Monticello, KY

Change the Weather History Date:

Sunday, February 17, 2013

  Actual Average Record
Temperature  
Mean Temperature 24 °F -  
Max Temperature 38 °F 48 °F 68 °F (1975)
Min Temperature 11 °F 29 °F -4 °F (1958)
Degree Days  
Heating Degree Days 40    
Moisture  
Dew Point 13 °F    
Average Humidity 65    
Maximum Humidity 88    
Minimum Humidity 30    
Precipitation  
Precipitation 0.00 in - - ()
Sea Level Pressure  
Sea Level Pressure 30.28 in    
Wind  
Wind Speed 2 mph (East)    
Max Wind Speed 12 mph    
Max Gust Speed -    
Visibility 10 miles    
Events      
Averages and records for this station are not official NWS values.
T = Trace of Precipitation, MM = Missing Value Source: NWS Daily Summary

Daily Weather History Graph

Daily Weather History Graph

Search for Another Location

Airport:

Trip Planner

Search our weather history database for the weather conditions in past years. The results will help you decide how hot, cold, wet, or windy it might be!

Date:

Astronomy

Feb. 17, 2013 Rise Set
Actual Time 6:25 AM CST 5:22 PM CST
Civil Twilight 5:58 AM CST 5:48 PM CST
Nautical Twilight 5:28 AM CST 6:18 PM CST
Astronomical Twilight 4:58 AM CST 6:48 PM CST
Moon 10:29 AM CST (2/17) 12:05 AM CST (2/17)
Length of Visible Light 11h 49m
Length of Day
10h 56m
Waxing Crescent, 49% of the Moon is Illuminated
Feb 17
Waxing Crescent
Feb 17
First Quarter
Feb 25
Full
Mar 4
Last Quarter
Mar 11
New

Hourly Weather History & Observations

Time (CST) Temp. Windchill Dew Point Humidity Pressure Visibility Wind Dir Wind Speed Gust Speed Precip Events Conditions
12:56 AM 19.0 °F - 11.1 °F 71% 30.22 in 10.0 mi Calm Calm - N/A   Clear
1:56 AM 13.1 °F - 9.1 °F 84% 30.22 in 10.0 mi Calm Calm - N/A   Clear
2:56 AM 12.0 °F - 9.1 °F 88% 30.22 in 10.0 mi Calm Calm - N/A   Clear
3:56 AM 12.0 °F - 9.1 °F 88% 30.23 in 10.0 mi Calm Calm - N/A   Clear
4:56 AM 12.0 °F - 9.1 °F 88% 30.25 in 10.0 mi Calm Calm - N/A   Clear
5:56 AM 11.1 °F - 8.1 °F 87% 30.26 in 10.0 mi Calm Calm - N/A   Clear
6:56 AM 13.1 °F - 10.0 °F 88% 30.29 in 10.0 mi Calm Calm - N/A   Clear
7:56 AM 24.1 °F 16.0 °F 16.2 °F 72% 30.31 in 10.0 mi ENE 6.9 mph - N/A   Clear
8:56 AM 28.0 °F 21.7 °F 16.2 °F 61% 30.32 in 10.0 mi Variable 5.8 mph - N/A   Clear
9:56 AM 31.1 °F 21.9 °F 14.0 °F 49% 30.33 in 10.0 mi East 11.5 mph - N/A   Clear
10:56 AM 32.9 °F 24.1 °F 14.0 °F 46% 30.33 in 10.0 mi ESE 11.5 mph - N/A   Clear
11:56 AM 34.9 °F 29.0 °F 13.1 °F 41% 30.31 in 10.0 mi ESE 6.9 mph - N/A   Clear
12:56 PM 36.9 °F 31.4 °F 13.1 °F 38% 30.28 in 10.0 mi SE 6.9 mph - N/A   Clear
1:56 PM 38.8 °F 36.5 °F 12.0 °F 33% 30.27 in 10.0 mi Variable 3.5 mph - N/A   Clear
2:56 PM 37.9 °F 32.1 °F 9.1 °F 30% 30.27 in 10.0 mi ENE 8.1 mph - N/A   Clear
3:56 PM 38.8 °F 33.8 °F 10.0 °F 31% 30.27 in 10.0 mi ESE 6.9 mph - N/A   Clear
4:56 PM 36.0 °F 32.1 °F 11.1 °F 36% 30.27 in 10.0 mi East 4.6 mph - N/A   Clear
5:56 PM 26.1 °F - 15.1 °F 63% 30.28 in 10.0 mi Calm Calm - N/A   Clear
6:56 PM 22.1 °F - 15.1 °F 74% 30.29 in 10.0 mi Calm Calm - N/A   Clear
7:56 PM 20.1 °F - 15.1 °F 81% 30.28 in 10.0 mi Calm Calm - N/A   Clear
8:56 PM 19.0 °F - 15.1 °F 85% 30.30 in 10.0 mi Calm Calm - N/A   Clear
9:56 PM 20.1 °F - 15.1 °F 81% 30.28 in 10.0 mi Calm Calm - N/A   Clear
10:56 PM 22.1 °F 15.9 °F 15.1 °F 74% 30.28 in 10.0 mi NE 4.6 mph - N/A   Clear
11:56 PM 23.0 °F - 15.1 °F 72% 30.28 in 10.0 mi Calm Calm - N/A   Clear